Flag for U.S.A. Weather past 2 weeks in Modesto, California, U.S.A.

Now
58 °F

Clear.


Feels Like: 57 °F
Forecast: 52 / 74 °F
Wind: 6 mph from Northwest

Location: Modesto City-County-Sham Field

Current Time: Oct 22, 2014 at 12:25:18 AM

Latest Report: Oct 21, 2014 at 11:53 PM


Visibility: 10 mi

Pressure: 30.02 "Hg

Humidity: 67%

Dew point: 47 °F

Location of ModestoLocation

Historic Weather in Modesto — Graph

°F

Modesto temperature yesterday

Maximum temperature yesterday: 71 °F (at 2:53 PM)
Minimum temperature yesterday: 51 °F (at 7:53 AM)
Average temperature yesterday: 62 °F

Past Weeks' High & Low Weather Summary

 TemperatureHumidityPressure
High94 °F (Oct 8, 2:53 PM)93% (Oct 19, 5:53 AM)30.09 "Hg (Oct 19, 5:53 AM)
Low51 °F (Oct 21, 7:53 AM)12% (Oct 8, 3:53 PM)29.76 "Hg (Oct 14, 2:53 PM)
Average69 °F53%29.92 "Hg
* Reported Oct 6 10:53 PM — Oct 21 10:53 PM, Modesto, Weather by CustomWeather, © 2014

Note: Actual official high and low records may vary slightly from our data, if they occured in-between our weather recording intervals... More about our weather records

Advertising

Modesto weather history for previous 24 hours

 ConditionsComfort  
Time TempWeatherWind HumidityBarometerVisibility
10:53 PM
Oct 21
59 °FClear.7 mph64%30.01 "Hg10 mi
9:53 PM61 °FClear.12 mph58%30.01 "Hg10 mi
8:53 PM62 °FClear.9 mph46%30.00 "Hg10 mi
7:53 PM63 °FClear.9 mph43%29.99 "Hg10 mi
6:53 PM65 °FSunny.9 mph39%29.98 "Hg10 mi
5:53 PM69 °FSunny.14 mph32%29.97 "Hg10 mi
4:53 PM71 °FSunny.16 mph32%29.98 "Hg10 mi
3:53 PM71 °FSunny.15 mph34%29.99 "Hg10 mi
2:53 PM71 °FSunny.17 mph35%29.99 "Hg10 mi
1:53 PM70 °FSunny.14 mph37%30.01 "Hg10 mi
12:53 PM69 °FSunny.16 mph38%30.04 "Hg10 mi
11:53 AM67 °FSunny.16 mph41%30.06 "Hg10 mi
10:53 AM64 °FSunny.15 mph47%30.07 "Hg10 mi
9:53 AM61 °FSunny.12 mph58%30.08 "Hg10 mi
8:53 AM57 °FSunny.16 mph72%30.09 "Hg10 mi
7:53 AM51 °FClear.5 mph86%30.07 "Hg10 mi
6:53 AM52 °FClear.5 mph86%30.06 "Hg10 mi
5:53 AM53 °FClear.5 mph83%30.05 "Hg10 mi
4:53 AM54 °FClear.9 mph83%30.05 "Hg10 mi
3:53 AM56 °FClear.10 mph81%30.05 "Hg10 mi
2:53 AM54 °FClear.6 mph86%30.06 "Hg10 mi
1:53 AM57 °FClear.7 mph81%30.08 "Hg10 mi
12:53 AM58 °FClear.8 mph81%30.06 "Hg10 mi
Weather by CustomWeather, © 2014

See weather overviewHow to use our weather pages